Weather in Yambirno

Russia / Ryazan Oblast     54°07′12″N   42°05′20″E
temp.,
°C
wind,
m/s
gust,
m/s
humid.,
%
clouds,
%
prec.,
mm/h
press.,
hPa
HPBL,
m
2 march, tue
tue200:00−2sw61392100 0.1 1017601
03:00−1wsw61392100 0.1 1014587
06:000wsw61391100 0.0 1010665
09:00+1w61297100 0.1 1009684
12:00+1w61299100 0.1 1006698
15:00+1wnw4999100 0.3 1006545
18:000wnw4994100 0.1 1005422
21:00−2wnw4993100 0.4 1007244
3 march, wed
wed300:00−3nw4119399 0.1 1007401
03:00−5nw4109498 0.1 1009281
06:00−6nw5139188 0.0 1010586
09:00−6nw6129087 0.0 1012734
12:00−4nw61084100 0.1 1012829
15:00−3nw51080100 0.1 1013973
18:00−5w389032 0.0 1013190
21:00−5w4119540 0.0 1013338
4 march, thu
thu400:00−5w5129472 0.0 1012364
03:00−4wsw4119485 0.0 1011466
06:00−4sw61292100 0.0 1008517
09:00−1sw81690100 0.5 1005834
12:00+1wsw81488100 0.0 10031064
15:00+1wsw71386100 0.1 10021054
18:000wsw61389100 0.0 1000894
21:00+1wsw61297100 0.1 999703
5 march, fri
fri500:000w51197100 0.3 999629
03:00−4nw3893100 0.9 1002281
06:00−6nnw3595100 0.0 1005140
09:00−7nnw249278 0.0 1008196
12:00−4nnw22820 0.0 1010357
15:00−3nnw118017 0.0 1011362
18:00−6ne1188100 0.0 101121
21:00−6e2290100 0.0 101241
6 march, sat
sat600:00−6ene2395100 0.0 101193
03:00−5n4995100 2.9 1005495
06:00−7nnw3695100 0.3 1007253
09:00−8nnw479297 0.3 1008298
12:00−6nw468879 0.1 1009693
15:00−5nw468290 0.2 1010963
18:00−7w3891100 0.1 1011251
21:00−10w379093 0.2 1012179